Stations météo

Publicité
Carcassonne, France (7635): Température de l'air & dewpoint: 28.05.2020 01:00:00 - 03.06.2020 01:00:00 (CEST)Carcassonne, France (7635): Température de l'air 5cm: 28.05.2020 01:00:00 - 03.06.2020 01:00:00 (CEST)Carcassonne, France (7635): Température de l'air -20cm & Température de l'air -100cm: 28.05.2020 01:00:00 - 03.06.2020 01:00:00 (CEST)Carcassonne, France (7635): Vitesse du vent & gusts: 28.05.2020 01:00:00 - 03.06.2020 01:00:00 (CEST)Carcassonne, France (7635): Direction du vent: 28.05.2020 01:00:00 - 03.06.2020 01:00:00 (CEST)Carcassonne, France (7635): reduced air pressure: 28.05.2020 01:00:00 - 03.06.2020 01:00:00 (CEST)Carcassonne, France (7635): visibility: 28.05.2020 01:00:00 - 03.06.2020 01:00:00 (CEST)Carcassonne, France (7635): Ensoleillement: 28.05.2020 01:00:00 - 03.06.2020 01:00:00 (CEST)Carcassonne, France (7635): Quantités de précipitations: 28.05.2020 01:00:00 - 03.06.2020 01:00:00 (CEST)
Date & Time tt [°C] td [°C] tt 5cm [°C] tt -20cm [°C] tt -100cm [°C] ff [km/h] ff [knt] fx [km/h] fx [knt] dd ppp [hPa] vv [km] sd [min] rr [mm]
03.06.2020 01:00:00 16,8 15,0 12,6 22,5 18,8 2 1 8 5 SW 1013,0 44 0 0,0
03.06.2020 00:00:00 17,5 15,1 13,6 22,7 18,8 4 2 10 5 ESE 1013,3 58 0 0,0
02.06.2020 23:00:00 19,2 15,1 14,5 22,9 18,8 5 3 14 8 NE 1013,3 60 0 0,0
02.06.2020 22:00:00 21,5 15,8 19,0 23,0 18,8 8 4 18 10 E 1012,9 58 0 0,0
02.06.2020 21:00:00 23,4 16,0 21,5 23,0 18,8 10 5 16 8 ENE 1012,5 59 60 0,0
02.06.2020 20:00:00 26,1 13,9 26,4 23,0 18,8 8 4 20 11 E 1012,6 53 60 0,0
02.06.2020 19:00:00 26,4 13,8 30,2 22,9 18,8 14 8 29 16 ENE 1012,6 39 60 0,0
02.06.2020 18:00:00 26,9 14,0 32,0 22,6 18,8 11 6 23 13 E 1013,0 40 60 0,0
02.06.2020 17:00:00 26,8 14,2 32,3 22,3 18,8 17 9 29 16 ENE 1013,5 46 60 0,0
02.06.2020 16:00:00 26,6 15,9 27,6 21,9 18,8 21 11 35 19 ENE 1014,2 60 45 0,0
02.06.2020 15:00:00 27,4 14,8 31,4 21,4 18,8 4 2 14 8 WSW 1014,4 58 47 0,0
02.06.2020 14:00:00 26,2 14,6 29,4 21,0 18,8 9 5 19 10 NE 1015,0 60 51 0,0
02.06.2020 13:00:00 24,7 14,2 29,2 20,8 18,8 6 4 23 13 ENE 1015,7 50 16 0,0
02.06.2020 12:00:00 23,2 16,0 25,2 20,7 18,7 11 6 22 12 E 1016,3 49 30 0,0
02.06.2020 11:00:00 21,9 16,4 24,0 20,4 18,7 11 6 22 12 E 1016,6 60 22 0,0
02.06.2020 10:00:00 21,0 17,2 20,7 20,4 18,7 11 6 25 13 E 1016,8 60 18 0,0
02.06.2020 09:00:00 19,5 16,5 18,7 20,4 18,8 8 4 18 10 E 1016,8 23 43 0,0
02.06.2020 08:00:00 16,9 15,9 15,9 20,5 18,8 3 2 7 4 SSE 1016,6 10 5 0,0
02.06.2020 07:00:00 16,0 15,4 14,8 20,5 18,7 3 1 6 4 ESE 1016,5 6 0 0,0
02.06.2020 06:00:00 15,6 15,0 11,3 20,7 18,8 2 1 5 3 W 1016,2 7 0 0,0
02.06.2020 05:00:00 14,4 13,3 11,1 20,8 18,8 2 1 5 3 W 1016,3 4,1 0 0,0
02.06.2020 04:00:00 15,6 14,5 11,4 21,0 18,7 5 3 9 5 ESE 1016,1 8 0 0,0
02.06.2020 03:00:00 16,4 14,9 14,1 21,1 18,8 0 0 9 5 N 1016,5 15 0 0,0
02.06.2020 02:00:00 17,6 15,8 15,5 21,2 18,8 6 3 10 6 E 1016,7 41 0 0,0
02.06.2020 01:00:00 18,4 16,4 16,6 21,3 18,7 4 2 13 7 E 1017,3 60 0 0,0
02.06.2020 00:00:00 18,6 15,8 17,6 21,4 18,8 5 3 16 9 E 1017,4 60 0 0,0
01.06.2020 23:00:00 18,6 16,4 17,8 21,5 18,8 11 6 23 12 ENE 1016,9 60 0 0,0
01.06.2020 22:00:00 19,1 16,5 18,5 21,6 18,8 15 8 31 17 E 1016,0 60 0 0,0
01.06.2020 21:00:00 19,5 16,3 19,1 21,7 18,8 19 10 32 17 E 1015,8 60 0 0,0
01.06.2020 20:00:00 20,2 16,6 19,6 21,7 18,8 16 9 32 17 ENE 1015,7 60 0 0,0
01.06.2020 19:00:00 20,4 16,2 20,6 21,8 18,8 22 12 40 21 E 1015,6 41 0 0,0
01.06.2020 18:00:00 20,2 16,4 19,4 21,8 18,8 22 12 37 20 E 1015,7 39 0 0,0
01.06.2020 17:00:00 20,6 16,8 20,1 21,7 18,7 23 13 40 21 ENE 1016,1 36 0 0,0
01.06.2020 16:00:00 21,8 16,7 23,2 21,6 18,7 25 14 40 22 ENE 1016,3 29 2 0,0
01.06.2020 15:00:00 21,4 17,0 22,2 21,4 18,7 29 16 50 27 E 1015,9 30 0 0,0
01.06.2020 14:00:00 21,6 16,8 22,9 21,2 18,7 31 17 46 25 ENE 1015,6 28 18 0,0
01.06.2020 13:00:00 23,3 17,3 25,4 21,0 18,7 33 18 49 26 E 1015,4 20 48 0,0
01.06.2020 12:00:00 23,6 17,1 23,4 20,8 18,7 28 15 45 24 E 1015,3 25 48 0,0
01.06.2020 11:00:00 21,4 16,6 19,8 20,8 18,7 22 12 42 23 E 1015,2 32 13 0,0
01.06.2020 10:00:00 18,9 16,5 18,5 20,9 18,7 13 7 30 16 ESE 1015,4 36 0 0,0
01.06.2020 09:00:00 18,4 16,2 18,0 20,9 18,7 12 6 34 18 E 1015,7 40 0 0,0
01.06.2020 08:00:00 18,1 16,1 17,8 21,0 18,7 16 9 35 19 E 1015,3 19 0 0,0
01.06.2020 07:00:00 18,1 15,9 17,4 21,1 18,7 19 11 35 19 E 1014,6 37 0 0,0
01.06.2020 06:00:00 18,0 16,0 17,3 21,2 18,7 13 7 31 17 E 1014,0 20 0 0,0
01.06.2020 05:00:00 17,8 16,0 17,3 21,3 18,7 19 10 34 18 E 1013,7 53 0 0,0
01.06.2020 04:00:00 18,0 16,0 17,8 21,4 18,7 16 9 31 17 E 1013,8 59 0 0,0
01.06.2020 03:00:00 18,1 16,1 17,8 21,5 18,7 21 11 32 17 E 1013,9 58 0 0,0
01.06.2020 02:00:00 18,3 16,1 17,9 21,6 18,7 21 12 36 19 E 1014,1 57 0 0,0
01.06.2020 01:00:00 18,7 16,3 18,5 21,7 18,6 19 11 36 19 E 1014,2 59 0 0,0
01.06.2020 00:00:00 18,7 16,3 18,6 21,8 18,6 16 9 37 20 E 1014,3 59 0 0,0
31.05.2020 23:00:00 18,8 16,0 18,0 22,0 18,7 17 9 37 20 E 1014,6 60 0 0,0
31.05.2020 22:00:00 18,8 15,8 18,2 22,1 18,7 20 11 38 21 E 1014,2 60 0 0,0
31.05.2020 21:00:00 19,5 15,8 19,0 22,2 18,6 24 13 46 25 E 1013,6 54 0 0,0
31.05.2020 20:00:00 20,4 15,8 20,6 22,2 18,6 27 15 47 26 E 1013,2 29 26 0,0
31.05.2020 19:00:00 21,7 15,8 22,3 22,1 18,6 29 15 51 28 E 1012,7 21 49 0,0
31.05.2020 18:00:00 22,6 16,4 24,9 21,9 18,7 36 19 53 29 E 1012,8 21 60 0,0
31.05.2020 17:00:00 23,6 16,6 24,5 21,7 18,6 34 18 51 28 E 1013,0 22 37 0,0
31.05.2020 16:00:00 23,5 16,8 24,9 21,5 18,6 31 17 49 26 E 1013,3 20 30 0,0
31.05.2020 15:00:00 22,3 17,2 24,3 21,3 18,6 33 18 56 31 E 1013,7 23 31 0,0
31.05.2020 14:00:00 21,4 16,6 23,5 21,2 18,6 30 16 49 26 E 1014,2 28 17 0,0
31.05.2020 13:00:00 21,3 16,5 21,3 21,1 18,6 28 15 49 26 E 1014,3 35 0 0,0
31.05.2020 12:00:00 20,8 16,0 21,4 21,0 18,6 29 16 47 25 E 1014,1 39 11 0,0
31.05.2020 11:00:00 20,2 15,8 19,6 21,1 18,6 28 15 41 22 E 1014,1 47 0 0,0
31.05.2020 10:00:00 19,5 15,6 18,6 21,2 18,6 21 12 39 21 E 1014,1 45 8 0,0
31.05.2020 09:00:00 18,4 15,6 18,3 21,3 18,6 19 10 35 19 E 1013,9 47 0 0,0
31.05.2020 08:00:00 18,0 15,6 17,7 21,3 18,5 13 7 25 13 E 1014,0 46 0 0,0
31.05.2020 07:00:00 17,6 15,4 16,9 21,5 18,5 16 9 32 17 E 1013,9 57 0 0,0
31.05.2020 06:00:00 17,3 15,1 16,7 21,6 18,6 19 10 31 17 E 1013,6 53 0 0,0
31.05.2020 05:00:00 17,4 14,7 17,1 21,8 18,6 15 8 32 17 E 1013,7 60 0 0,0
31.05.2020 04:00:00 17,1 14,4 16,6 21,9 18,5 17 9 32 17 E 1013,9 60 0 0,0
31.05.2020 03:00:00 16,7 14,2 15,9 22,1 18,5 16 8 28 15 E 1014,6 60 0 0,0
31.05.2020 02:00:00 16,6 13,9 15,3 22,3 18,5 14 8 24 13 E 1014,8 60 0 0,0
31.05.2020 01:00:00 16,4 13,7 15,2 22,5 18,5 13 7 22 12 E 1015,1 60 0 0,0
31.05.2020 00:00:00 17,0 13,5 15,7 22,7 18,5 9 5 21 11 E 1014,9 60 0 0,0
30.05.2020 23:00:00 17,7 13,8 16,7 22,9 18,5 14 8 27 15 E 1014,8 60 0 0,0
30.05.2020 22:00:00 18,8 13,4 17,7 23,1 18,5 16 9 34 18 E 1014,3 60 0 0,0
30.05.2020 21:00:00 20,4 13,8 19,6 23,2 18,5 22 12 38 21 E 1014,0 43 58 0,0
30.05.2020 20:00:00 22,3 13,9 22,6 23,2 18,4 24 13 35 19 ENE 1013,6 25 60 0,0
30.05.2020 19:00:00 23,7 14,1 27,1 23,1 18,5 22 12 39 21 ENE 1013,5 19 60 0,0
30.05.2020 18:00:00 24,2 14,0 28,1 23,0 18,5 28 15 41 22 ENE 1013,8 15 60 0,0
30.05.2020 17:00:00 24,8 14,0 29,6 22,7 18,5 28 15 43 23 E 1013,9 16 60 0,0
30.05.2020 16:00:00 24,6 15,2 29,9 22,3 18,4 27 15 45 24 E 1014,2 15 60 0,0
30.05.2020 15:00:00 24,1 15,3 28,7 21,9 18,4 29 16 45 25 E 1014,6 17 60 0,0
30.05.2020 14:00:00 23,7 16,0 28,8 21,6 18,4 29 16 46 25 E 1015,0 20 60 0,0
30.05.2020 13:00:00 22,7 15,5 27,2 21,3 18,4 29 15 47 25 E 1015,6 23 60 0,0
30.05.2020 12:00:00 22,1 15,4 24,4 21,2 18,4 27 15 45 24 E 1015,9 30 57 0,0
30.05.2020 11:00:00 21,3 15,8 20,8 21,1 18,4 24 13 41 22 E 1016,1 46 40 0,0
30.05.2020 10:00:00 19,5 15,2 19,5 21,2 18,4 26 14 43 23 E 1016,6 60 27 0,0
30.05.2020 09:00:00 18,3 15,2 17,9 21,2 18,3 22 12 35 19 E 1016,7 60 5 0,0
30.05.2020 08:00:00 17,5 15,1 17,1 21,4 18,4 18 10 30 16 E 1016,7 35 2 0,0
30.05.2020 07:00:00 17,2 15,0 17,0 21,5 18,3 16 9 31 17 E 1017,0 50 0 0,0
30.05.2020 06:00:00 17,1 15,1 16,7 21,6 18,3 19 10 34 18 E 1016,8 41 0 0,0
30.05.2020 05:00:00 17,3 14,9 16,8 21,8 18,3 22 12 36 19 E 1016,7 43 0 0,0
30.05.2020 04:00:00 17,3 14,6 16,7 21,9 18,3 20 11 34 18 E 1017,2 49 0 0,0
30.05.2020 03:00:00 17,7 15,3 17,4 22,1 18,3 19 11 32 18 E 1017,3 43 0 0,0
30.05.2020 02:00:00 17,6 15,8 17,0 22,3 18,3 20 11 36 19 E 1017,5 38 0 0,0
30.05.2020 01:00:00 17,8 16,0 17,3 22,5 18,3 21 12 41 22 E 1017,6 36 0 0,0
30.05.2020 00:00:00 18,3 16,1 17,7 22,7 18,3 19 10 36 20 E 1017,7 36 0 0,0
29.05.2020 23:00:00 18,6 16,0 18,0 22,9 18,3 23 13 42 23 E 1017,5 38 0 0,0
29.05.2020 22:00:00 19,2 14,5 18,6 23,1 18,3 26 14 45 24 E 1017,0 50 0 0,0
29.05.2020 21:00:00 20,3 13,7 19,7 23,2 18,3 31 17 53 29 E 1016,4 39 47 0,0
29.05.2020 20:00:00 22,5 12,7 22,8 23,3 18,3 34 19 52 28 E 1015,6 27 60 0,0
29.05.2020 19:00:00 24,9 11,5 27,3 23,3 18,2 27 14 44 24 E 1014,7 28 60 0,0
29.05.2020 18:00:00 26,0 11,4 25,0 23,3 18,3 27 14 46 25 ENE 1014,1 33 45 0,0
29.05.2020 17:00:00 26,3 10,8 26,8 23,0 18,2 32 18 49 26 ENE 1014,5 36 38 0,0
29.05.2020 16:00:00 27,7 12,9 30,8 22,7 18,2 23 12 34 18 E 1014,1 45 29 0,0
29.05.2020 15:00:00 29,0 12,0 33,9 22,2 18,2 4 2 19 10 E 1014,4 49 39 0,0
29.05.2020 14:00:00 28,2 12,5 34,7 21,7 18,2 7 4 19 11 N 1014,9 56 60 0,0
29.05.2020 13:00:00 27,3 14,0 33,7 21,3 18,2 7 4 22 12 N 1015,3 60 60 0,0
29.05.2020 12:00:00 26,0 14,1 32,3 21,0 18,2 5 3 18 10 ENE 1016,0 60 60 0,0
29.05.2020 11:00:00 24,4 13,9 29,7 20,8 18,2 6 3 18 10 NE 1016,5 60 60 0,0
29.05.2020 10:00:00 22,5 14,3 24,4 20,8 18,2 3 2 8 4 ENE 1017,0 56 60 0,0
29.05.2020 09:00:00 19,6 14,8 19,7 20,8 18,2 3 2 9 5 SSE 1017,5 24 60 0,0
29.05.2020 08:00:00 16,3 14,5 13,3 21,0 18,1 3 1 11 6 SSE 1018,0 20 60 0,2
29.05.2020 07:00:00 13,9 13,1 10,0 21,2 18,1 6 3 11 6 S 1018,3 17 21 0,0
29.05.2020 06:00:00 13,3 12,5 9,5 21,5 18,1 5 3 9 5 S 1018,3 12 0 0,0
29.05.2020 05:00:00 13,3 12,2 10,0 21,7 18,1 0 0 4 2 N 1018,4 9 0 0,0
29.05.2020 04:00:00 13,7 12,4 10,6 21,9 18,1 3 1 6 3 E 1018,8 14 0 0,0
29.05.2020 03:00:00 14,5 12,9 11,0 22,1 18,1 2 1 6 3 NW 1019,0 19 0 0,0
29.05.2020 02:00:00 15,6 13,3 12,2 22,4 18,1 3 1 10 6 ENE 1019,4 49 0 0,0
29.05.2020 01:00:00 16,8 14,1 13,3 22,6 18,1 6 4 12 7 S 1019,5 55 0 0,0
29.05.2020 00:00:00 17,3 14,4 13,2 22,9 18,1 6 3 11 6 S 1019,8 60 0 0,0
28.05.2020 23:00:00 18,0 13,7 13,6 23,0 18,1 4 2 5 3 E 1020,1 59 0 0,0
28.05.2020 22:00:00 21,3 14,0 15,1 23,1 18,1 4 2 10 6 E 1019,6 8 0 0,0
28.05.2020 21:00:00 24,3 15,0 19,6 23,2 18,1 6 3 14 7 ENE 1019,2 60 56 0,0
28.05.2020 20:00:00 26,5 14,3 27,7 23,2 18,1 9 5 18 10 ENE 1019,3 54 60 0,0
28.05.2020 19:00:00 27,7 13,2 31,4 23,1 18,0 9 5 19 10 E 1019,5 58 60 0,0
28.05.2020 18:00:00 27,9 12,3 33,1 22,9 18,1 9 5 25 14 E 1020,1 42 60 0,0
28.05.2020 17:00:00 28,0 12,8 33,8 22,5 18,1 13 7 30 16 ENE 1020,7 37 60 0,0
28.05.2020 16:00:00 27,6 12,0 33,5 22,1 18,0 13 7 26 14 ENE 1021,4 38 60 0,0
28.05.2020 15:00:00 26,9 14,0 32,6 21,6 18,0 10 5 29 16 ESE 1022,3 31 60 0,0
28.05.2020 14:00:00 26,1 15,2 31,7 21,2 18,0 15 8 31 17 E 1023,0 23 60 0,0
28.05.2020 13:00:00 24,7 15,6 29,3 20,9 18,0 16 9 30 16 ENE 1023,8 25 60 0,0
28.05.2020 12:00:00 23,1 14,1 27,8 20,6 18,0 15 8 30 16 E 1024,6 24 60 0,0
28.05.2020 11:00:00 22,0 14,6 23,9 20,5 18,0 14 8 31 17 E 1025,2 23 55 0,0
28.05.2020 10:00:00 20,3 14,9 22,5 20,5 18,0 12 6 29 16 E 1025,9 25 50 0,0
28.05.2020 09:00:00 18,7 15,6 18,0 20,5 18,0 20 11 30 16 E 1026,1 30 50 0,0
28.05.2020 08:00:00 16,6 14,4 16,2 20,7 18,0 18 10 28 15 E 1026,3 19 9 0,0
28.05.2020 07:00:00 16,0 14,5 15,5 20,8 18,0 17 9 27 15 E 1026,4 19 0 0,0
28.05.2020 06:00:00 15,6 14,5 15,5 20,9 18,0 14 8 24 13 ENE 1026,4 16 0 0,0
28.05.2020 05:00:00 15,8 14,8 15,7 21,1 18,0 15 8 29 16 E 1026,5 15 0 0,0
28.05.2020 04:00:00 16,1 15,1 15,1 21,2 17,9 17 9 29 16 E 1026,7 14 0 0,0
28.05.2020 03:00:00 15,9 14,9 14,9 21,4 17,9 14 8 23 12 E 1026,9 17 0 0,0
28.05.2020 02:00:00 16,0 15,0 14,8 21,6 18,0 11 6 18 10 ENE 1027,3 14 0 0,0
28.05.2020 01:00:00 16,9 15,4 15,8 21,8 17,9 12 7 22 12 E 1027,4 20 0 0,0

tt = Température de l'air
td = dewpoint
tt 5cm = Température de l'air 5cm
tt -20cm = Température de l'air -20cm
tt -100cm = Température de l'air -100cm
ff = Vitesse du vent
fx = gusts
dd = Direction du vent
ppp = reduced air pressure
vv = visibility
sd = Ensoleillement
rr = Quantités de précipitations

stations d'obs. à proximité